This is the latest recevied weather packets stored in our database for station/object IW0REF-9. If no packets are shown the sender has not sent any weather packets the latest 10 day(s).
| Time | Temp. | Humidity | Pressure | Rain* | Wind** | Luminosity | Snow |
|---|---|---|---|---|---|---|---|
| 1778097213 | 17.22° C | 37% | 997.5 hPa | - | - | - | - |
| 1778096313 | 17.22° C | 36% | 997.5 hPa | - | - | - | - |
| 1778095413 | 17.78° C | 34% | 997.6 hPa | - | - | - | - |
| 1778094513 | 18.33° C | 34% | 997.6 hPa | - | - | - | - |
| 1778093613 | 18.33° C | 34% | 997.3 hPa | - | - | - | - |
| 1778092712 | 18.89° C | 34% | 997.1 hPa | - | - | - | - |
| 1778091812 | 18.89° C | 33% | 997.1 hPa | - | - | - | - |
| 1778090912 | 18.89° C | 33% | 997 hPa | - | - | - | - |
| 1778090012 | 19.44° C | 33% | 996.8 hPa | - | - | - | - |
| 1778089112 | 19.44° C | 33% | 996.8 hPa | - | - | - | - |
| 1778088212 | 20° C | 32% | 996.8 hPa | - | - | - | - |
| 1778087312 | 20° C | 32% | 996.8 hPa | - | - | - | - |
| 1778086412 | 20° C | 32% | 996.8 hPa | - | - | - | - |
| 1778085512 | 20.56° C | 32% | 996.8 hPa | - | - | - | - |
| 1778084612 | 21.11° C | 31% | 996.7 hPa | - | - | - | - |
| 1778083712 | 21.11° C | 31% | 996.7 hPa | - | - | - | - |
| 1778082812 | 21.11° C | 30% | 996.8 hPa | - | - | - | - |
| 1778081911 | 22.22° C | 30% | 996.8 hPa | - | - | - | - |
| 1778081011 | 22.78° C | 29% | 996.6 hPa | - | - | - | - |
| 1778080111 | 23.33° C | 29% | 996.3 hPa | - | - | - | - |
| 1778079211 | 25° C | 28% | 996.4 hPa | - | - | - | - |
| 1778078311 | 24.44° C | 29% | 996.5 hPa | - | - | - | - |
| 1778077411 | 23.89° C | 28% | 996.7 hPa | - | - | - | - |
| 1778076511 | 25.56° C | 27% | 996.6 hPa | - | - | - | - |
| 1778075611 | 27.78° C | 25% | 996.8 hPa | - | - | - | - |
* Rain since midnight (hover to see other rain measurements)
** Current wind speed in m/s (hover to see current wind gust speed)